www.pogodaiklimat.ru

Погода и климат >> Архив погоды >> Россия >> Магаданская область >> Коркодон


ПОГОДА в Коркодоне

  • Прогноз погоды в Коркодоне
  • Монитор погоды в Коркодоне
  • Климат города

АРХИВ ПОГОДЫ в Коркодоне

Время (UTC), дата Ветер
(напр.,м/с)
 
Видим.   Явления Облачность Т
(С)
Тd
(С)
f
(%)
Тe
(С)
Тes
(С)
Комфортность P
(гПа)
Po
(гПа)
Тmin
(С)
Tmax
(С)
R
(мм)
R24
(мм)
S
(см)
06 17.05 З 3 50 км 3/0
[Ci fib]
+12.5 +1.5 47 +11 +16 1003.5 991.7
09 17.05 З 2 50 км 8/0
[Ci fib]
+10.5 -0.1 48 +10 +10 1003.4 991.5 +12.6
12 17.05 З 2 50 км 9/4 1000 м
[Sc Ci fib]
+5.2 -1.0 64 +3 +3 1003.2 991.1
15 17.05 СЗ 1 50 км 8/4 1000 м
[Sc Ci fib]
-0.9 -1.8 94 -3 -3 1003.2 990.8
18 17.05 штиль 0 50 км 6/4 1000 м
[Sc Ci fib]
-2.3 -2.7 97 1002.8 990.6
21 17.05 В 2 50 км 3/0
[Ci fib]
+8.4 +0.4 57 +7 +11 1002.1 990.2 -2.4 0
00 18.05 ЮВ 2 50 км 3/0
[Ci fib]
+12.4 +1.4 47 +12 +21 1001.1 989.4
03 18.05 ЮВ 2 50 км 3/0
[Ci fib]
+12.4 +1.4 47 +12 +22 1001.1 989.4
06 18.05 Ю 2 50 км 4/3 1000 м
[Cu med, cong Ci fib]
+15.0 +0.9 38 +15 +19 998.5 986.9
09 18.05 ЮВ 2 50 км 9/5 1000 м
[Sc Ac trans Ci fib]
+12.8 -2.5 34 +12 +13 996.9 985.2 +15.4
12 18.05 В 2 50 км 6/0
[Ac lent Ci fib]
+7.3 -4.0 44 +6 +6 998.4 986.4
15 18.05 С 1 50 км 9/0
[Ac lent Ci fib]
-0.2 -1.7 90 -2 -2 999.1 986.9
18 18.05 СВ 1 50 км 9/3 1000 м
[Sc Ac lent Ci fib]
+1.5 -1.0 83 -0 0 999.1 987.0
21 18.05 ЮВ 1 50 км 9/0
[Ac lent Ci fib]
+8.1 0.0 57 +8 +11 998.4 986.5 -0.5 0
00 19.05 Ю 3 50 км 9/6 1000 м
[Cb cap Ac trans Ci fib]
+9.8 -0.2 50 +8 +10 997.8 986.0
03 19.05 Ю 3 50 км 9/9 1000 м
[Sc]
+10.9 -0.9 44 +9 +10 997.7 985.9
06 19.05 Ю 3 50 км 9/4 1000 м
[Cu Sc Ci fib]
+12.3 -0.4 42 +11 +13 996.9 985.2
09 19.05 Ю 3 50 км 9/6 1000 м
[Sc Ci fib]
+10.3 -0.1 48 +9 +9 997.7 985.9 +13.1
12 19.05 В 1 50 км 9/6 1000 м
[Sc Ac lent Ci fib]
+6.0 -0.9 61 998.6 986.6
15 19.05 СВ 1 50 км 9/8 1000 м
[Sc Ci fib]
+4.4 -0.7 69 +3 +3 999.2 987.1
18 19.05 СВ 1 50 км 9/8 1000 м
[Sc Ci fib]
+4.3 -0.8 69 +3 +3 999.3 987.2
21 19.05 ЮВ 1 50 км 9/5 1000 м
[Sc Ac trans Ci fib]
+6.9 -0.3 60 +6 +8 998.7 986.7 +3.7 0
00 20.05 СВ 2 50 км 9/9 1000 м
[Cb cap]
+8.6 -0.9 51 +7 +8 998.1 986.2
03 20.05 ЮЗ 1 50 км 9/9 1000 м
[Sc]
+9.7 0.0 51 +10 +11 996.6 984.8
06 20.05 СВ 2 50 км 9/9 1000 м
[Sc]
+10.3 -1.5 44 +9 +10 995.5 983.8
09 20.05 СВ 3
{10}
50 км {ливн. осадки} 9/9 1000 м
[Cb cap]
+8.1 +0.6 59 +6 +6 995.6 983.8 +10.5 0.0
12 20.05 СВ 1 50 км {ливн. осадки} 9/4 1000 м
[Sc Ac trans Ci fib]
+6.7 +0.3 64 +6 +6 995.7 983.8
15 20.05 З 2 50 км 9/4 1000 м
[Sc Ci fib]
+0.9 +0.1 94 -3 -3 995.9 983.7
18 20.05 З 3 10 км туман местами 9/5 1000 м
[Sc Ci fib]
+0.4 +0.4 100 -4 -4 995.8 983.6
21 20.05 З 2 50 км 9/6 1000 м
[Sc Ac trans Ci fib]
+4.8 +0.1 72 +2 +3 994.6 982.6 -0.5 0
00 21.05 С 3 20 км слабый ливневой дождь 10/10 1000 м
[Cb cap]
+9.6 +1.7 58 +8 +8 993.0 981.3
03 21.05 СВ 3
{10}
50 км {ливн. осадки} 9/9 1000 м
[Cb cap]
+10.8 -0.7 45 +9 +10 992.8 981.1
06 21.05 З 1
{11}
50 км {ливн. осадки} 10/10 1000 м
[Cb cap]
+8.7 -2.3 46 +9 +9 992.5 980.7
09 21.05 С 5
{11}
50 км {ливн. осадки} 9/9 600 м
[Cb cap]
+8.5 +0.8 58 +5 +5 994.1 982.3 +11.6 0.5
12 21.05 ЮЗ 4
{10}
50 км {ливн. осадки} 10/10 600 м
[Cb cap]
+7.5 +0.4 61 +4 +4 995.4 983.6
15 21.05 З 3 50 км 10/10 1000 м
[Cb cap]
+4.6 -0.8 68 +1 +1 996.9 984.8
18 21.05 З 2 50 км 9/5 1000 м
[Cb cap Ac trans Ci fib]
+2.8 -0.8 77 -0 0 998.3 986.2
21 21.05 З 2 50 км 9/4 600 м
[Cb cap Ci fib]
+5.9 +0.5 68 +4 +6 999.0 987.0 +2.8 0
00 22.05 СЗ 3
{10}
50 км 9/8 600 м
[Cb cap Ci fib]
+7.7 +0.4 60 +5 +7 999.1 987.2
03 22.05 С 4
{13}
50 км 9/9 600 м
[Cb cap]
+6.9 -0.3 60 +4 +4 1000.5 988.5
06 22.05 СЗ 3
{10}
50 км 9/9 1000 м
[Cb cap]
+8.3 +0.6 58 +6 +7 1001.5 989.6
09 22.05 С 4
{10}
50 км {ливн. осадки} 8/8 1000 м
[Cb cap]
+7.4 0.0 59 +4 +4 1003.7 991.7 +8.5 0.3
12 22.05 С 5
{10}
50 км {ливн. осадки} 9/8 1000 м
[Cb cap Ac trans Ci fib]
+6.2 -0.6 62 +2 +2 1005.0 993.0
15 22.05 З 2
{10}
50 км 9/6 1000 м
[Sc Ac trans Ci fib]
+4.1 -0.8 70 +2 +2 1006.3 994.2
18 22.05 З 3 50 км 9/9 1000 м
[Cb cap]
+3.4 -1.0 73 -0 -0 1008.0 995.7
21 22.05 З 2 50 км 8/4 1000 м
[Sc Ac trans Ci fib]
+6.6 +0.2 64 +5 +7 1008.6 996.5 +3.2 0
00 23.05 З 3 50 км 8/8 1000 м
[Cu Sc]
+9.0 +0.6 56 +7 +9 1008.6 996.6
03 23.05 СЗ 3 50 км 9/9 1000 м
[Cu Sc]
+9.0 0.0 53 +7 +8 1008.9 996.9
06 23.05 С 3 50 км 9/9 1000 м
[Sc]
+9.2 -0.4 51 +7 +8 1009.1 997.1
09 23.05 С 1 50 км 9/9 1000 м
[Sc]
+8.9 -0.5 52 +9 +9 1010.9 998.9 +9.4
12 23.05 З 2 50 км 9/9 1000 м
[Sc]
+6.5 -0.6 60 +5 +5 1012.6 1000.5
15 23.05 З 2 50 км 9/8 1000 м
[Sc Ci fib]
+3.2 -0.6 76 0 0 1013.2 1000.9
18 23.05 З 1 50 км 4/4 1000 м
[Sc]
+1.4 -0.5 87 -0 0 1014.1 1001.7
21 23.05 З 2 50 км 3/3 1000 м
[Sc]
+5.8 +0.4 68 +4 +7 1013.7 1001.6 +1.3 0
00 24.05 З 3 50 км 3/3 1000 м
[Cu med, cong]
+11.2 +0.6 48 +10 +16 1012.2 1000.2
03 24.05 З 2 50 км 8/8 1000 м
[Cu Sc]
+12.2 -0.6 41 +12 +14 1010.8 999.0

 

Местоположение метеостанции Коркодон (Магаданская область, Россия): широта 64.75 долгота 153.90 высота над уровнем моря 99 м.

В архиве по умолчанию представлена погода в Коркодоне за последнюю неделю. Архивные данные за месяц целиком и за предыдущие месяцы, начиная с января 2011 года, Вы можете получить, выбрав интересующий диапазон дат из раскрывающегося списка и нажав кнопку "Ввод!".

Внимание! Время в таблицах - всемирное. Для получения местного времени необходимо прибавить поправку, которая в Коркодоне равна 11 ч.

Смотрите также архив погоды в соседних городах и на ближайших метеорологических станциях:

Погода в Балыгычане (Магаданская область, Россия) (94 км)
Погода в Зырянке (Якутия, Россия) (177 км)
Погода в Сеймчане (Магаданская область, Россия) (217 км)
Погода в Омсукчане (Магаданская область, Россия) (265 км)
Погода в Среднекане (Магаданская область, Россия) (268 км)
Погода в Совхозе Эльген (Магаданская область, Россия) (271 км)
Погода в Лабазной (Магаданская область, Россия) (276 км)
Погода в Среднеколымске (Якутия, Россия) (300 км)
Погода в Омолоне (Чукотка, Россия) (315 км)
Погода в Ягодной (Магаданская область, Россия) (327 км)

Пояснения к столбцам:

Ветер - указаны скорость ветра в м/с - средняя за 10 мин, порывы в срок и между сроками (в фигурных скобках) и направление, откуда дует ветер: С - северный, СВ - северо-восточный, В - восточный, ЮВ - юго-восточный, Ю - южный, ЮЗ - юго-западный, З - западный, СЗ - северо-западный.
Видимость - горизонтальная дальность видимости в метрах или километрах. При видимости от 1 до 10 км при отсутствии осадков обычно наблюдается дымка, при ухудшении видимости до 1 км и менее - туман. В сухую погоду видимость может ухудшаться дымом, пылью или мглою.
Явления - указаны атмосферные явления, наблюдавшиеся в срок или в последний час перед сроком; фигурными скобками обозначены явления, наблюдавшиеся между сроками (за 1-3 часа до срока); квадратными скобками обозначены град или гололедные отложения с указанием их диаметра в мм.
Облачность - указаны через наклонную черту общая и нижняя облачность в баллах и высота нижней границы облаков в метрах; квадратными скобками обозначены формы облаков: Ci - перистые, Cs - перисто-слоистые, Cc - перисто-кучевые, Ac - высококучевые, As - высокослоистые, Sc - слоисто-кучевые, Ns - слоисто-дождевые, Cu - кучевые, Cb - кучево-дождевые. Подробнее классификацию облаков см. в Атласе облаков (PDF).
T - Температура воздуха - температура, измеренная на высоте 2 м над землей.
Td - Температура точки росы - температура, при понижении до которой содержащийся в воздухе водяной пар достигнет насыщения.
f - Относительная влажность воздуха - влажноcть воздуха, измеренная на высоте 2 м над землей.
Te - Эффективная температура - температура, которую ощущает одетый по сезону человек в тени. Характеристика душности погоды. При расчете учитывается влияние влажности воздуха и скорости ветра на теплоощущения человека.
Tes - Эффективная температура на солнце - температура, которую ощущает человек, с поправкой на солнечный нагрев. Характеристика знойности погоды. Зависит от высоты солнца над горизонтом, облачности и скорости ветра. Ночью, в пасмурную погоду, а также при ветре 12 м/с и более поправка равна нулю.
P - Атмосферное давление - приведенное к уровню моря атмосферное давление.
Po - Атмосферное давление - измеренное на уровне метеостанции атмосферное давление.
Tmin - Минимальная температура - минимум температуры воздуха на высоте 2 м над землей.
Tmax - Максимальная температура - максимум температуры воздуха на высоте 2 м над землей.
R - Количество осадков - Количество выпавших осадков за период времени, мм. При наведении курсора мыши на число - период времени, за который выпало указанное количество осадков.
R24 - Количество осадков - Количество выпавших осадков за 24 часа, мм.
S - Снежный покров - Высота снежного покрова, см. При наведении курсора мыши на число - состояние снежного покрова и степень покрытия местности в баллах.